Location: Bühlhof
(48.7849°N, 8.6361°E)
Time: 00:00:22
(UTC+00:00)

ATLAS 3B R/B - Pass Details

Date: 19 January 2026
Orbit: 936 x 1257 km, 63.8° (Epoch: 18 February)

Event Time Altitude Azimuth Distance (km) Brightness Sun altitude
Rises 19:39:02 0° 314° (NW) 4,216 6.5 -35.1°
Reaches altitude 10° 19:42:04 10° 321° (NW) 3,248 5.7 -35.6°
Enters shadow 19:47:31 36° 358° (N) 1,864 3.9 -36.5°
